DW7759 Weather Reports


Display with metric or nautical units.
time (UTC)temp
F
wind
direction
speed
MPH
gust
MPH
rain 1hr
in
rain 24hr
in
rain mn
in
humidity
%
barometer
mb
20260505093954 46 246 0.0 0.0 0.00 0.00 0.00 86 1008.7
20260505093500 47 246 0.0 0.0 0.00 0.00 0.00 86 1008.6
20260505092954 47 246 0.0 0.0 0.00 0.00 0.00 86 1008.5
20260505092438 47 246 0.0 0.0 0.00 0.00 0.00 86 1008.4
20260505091924 47 246 0.0 0.0 0.00 0.00 0.00 86 1008.4
20260505091411 47 246 0.0 0.0 0.00 0.00 0.00 85 1008.4
20260505090906 47 246 0.0 0.0 0.00 0.00 0.00 83 1008.3
20260505090411 48 246 0.0 0.0 0.00 0.00 0.00 85 1008.4
20260505085257 48 246 0.0 0.0 0.00 0.00 0.00 84 1008.3
20260505084748 49 246 0.0 0.0 0.00 0.00 0.00 84 1008.3
20260505084251 49 246 0.0 3.0 0.00 0.00 0.00 83 1008.3
20260505083737 49 246 0.0 0.0 0.00 0.00 0.00 82 1008.3
20260505083221 50 246 0.0 0.0 0.00 0.00 0.00 84 1008.3
20260505082702 50 246 0.0 0.0 0.00 0.00 0.00 84 1008.3
20260505082201 50 246 0.0 0.0 0.00 0.00 0.00 84 1008.3
20260505081644 50 246 0.0 3.0 0.00 0.00 0.00 85 1008.3
20260505081138 50 245 0.0 0.0 0.00 0.00 0.00 83 1008.2
20260505080648 50 246 0.0 0.0 0.00 0.00 0.00 81 1008.4
20260505080154 51 246 0.0 4.0 0.00 0.00 0.00 80 1008.3
20260505075650 51 211 0.0 0.0 0.00 0.00 0.00 80 1008.3
20260505075137 52 211 0.0 0.0 0.00 0.00 0.00 79 1008.3
20260505074626 52 211 0.0 0.0 0.00 0.00 0.00 78 1008.2
20260505074124 53 211 0.0 0.0 0.00 0.00 0.00 79 1008.1
20260505073605 53 211 0.0 0.0 0.00 0.00 0.00 79 1008.1
20260505073053 54 211 0.0 0.0 0.00 0.00 0.00 78 1008.2
20260505071313 57 209 0.0 1.0 0.00 0.00 0.00 75 1008.0
20260505070816 57 209 0.0 0.0 0.00 0.00 0.00 74 1008.0
20260505065639 58 208 2.0 5.0 0.00 0.00 0.00 78 1007.8
20260505065128 58 207 2.0 5.0 0.00 0.00 0.00 77 1007.9
20260505064634 58 205 1.0 5.0 0.00 0.00 0.00 77 1007.8
20260505064120 58 197 1.0 4.0 0.00 0.00 0.00 77 1007.8
20260505063606 59 196 0.0 4.0 0.00 0.00 0.00 76 1007.8
20260505063111 59 196 0.0 0.0 0.00 0.00 0.00 76 1007.9
20260505061314 58 206 0.0 3.0 0.00 0.00 0.00 78 1007.7
20260505060822 57 206 0.0 3.0 0.00 0.00 0.00 79 1007.7
20260505060305 57 207 0.0 0.0 0.00 0.00 0.00 77 1007.6
20260505055757 57 207 0.0 0.0 0.00 0.00 0.00 76 1007.6
20260505055237 57 194 0.0 0.0 0.00 0.00 0.00 77 1007.5
20260505054745 57 194 0.0 0.0 0.00 0.00 0.00 75 1007.6
20260505054248 57 194 0.0 0.0 0.00 0.00 0.00 74 1007.5
20260505052515 59 194 0.0 0.0 0.00 0.00 0.00 70 1007.5
20260505050716 61 193 0.0 0.0 0.00 0.00 0.00 66 1007.3
20260505050157 62 193 0.0 0.0 0.00 0.00 0.00 66 1007.2
20260505041407 65 193 1.0 3.0 0.00 0.00 0.00 60 1006.6
20260505035554 67 200 0.0 0.0 0.00 0.00 0.00 59 1006.4
20260505033210 69 180 0.0 3.0 0.00 0.00 0.00 55 1006.0
20260505031427 69 195 4.0 9.0 0.00 0.00 0.00 54 1005.5
20260505030935 69 183 4.0 6.0 0.00 0.00 0.00 52 1005.5
20260505030420 70 198 3.0 6.0 0.00 0.00 0.00 54 1005.4
20260505025308 71 182 2.0 8.0 0.00 0.00 0.00 52 1005.4
20260505024201 72 183 7.0 10.0 0.00 0.00 0.00 52 1005.2
20260505023707 73 167 6.0 10.0 0.00 0.00 0.00 50 1005.2
20260505023155 73 180 3.0 10.0 0.00 0.00 0.00 49 1005.2
20260505021347 76 5 0.0 0.0 0.00 0.00 0.00 46 1005.2
20260505020829 77 10 0.0 2.0 0.00 0.00 0.00 43 1005.0
20260505020325 77 347 0.0 5.0 0.00 0.00 0.00 42 1005.0
20260505015813 77 182 0.0 0.0 0.00 0.00 0.00 44 1005.0
20260505014638 77 223 2.0 15.0 0.00 0.00 0.00 43 1005.0
20260505014133 78 200 3.0 15.0 0.00 0.00 0.00 41 1005.0
20260505013628 78 249 3.0 15.0 0.00 0.00 0.00 40 1005.0
20260505013113 77 254 4.0 15.0 0.00 0.00 0.00 41 1005.0
20260505011957 78 208 2.0 17.0 0.00 0.00 0.00 41 1004.9
20260505011500 78 232 3.0 17.0 0.00 0.00 0.00 41 1004.9
20260505010946 78 241 5.0 17.0 0.00 0.00 0.00 41 1005.1
20260505010431 78 217 8.0 17.0 0.00 0.00 0.00 40 1005.0
20260505005914 78 195 9.0 22.0 0.00 0.00 0.00 40 1004.8
20260505005407 78 190 9.0 22.0 0.00 0.00 0.00 39 1004.7
20260505004245 79 188 10.0 22.0 0.00 0.00 0.00 40 1004.6
20260505003118 79 214 12.0 21.0 0.00 0.00 0.00 39 1004.7
20260505002611 79 203 12.0 21.0 0.00 0.00 0.00 39 1004.6
20260505002119 78 194 11.0 21.0 0.00 0.00 0.00 40 1004.7
20260505001559 78 180 12.0 20.0 0.00 0.00 0.00 40 1004.7
20260505001046 79 203 14.0 27.0 0.00 0.00 0.00 38 1004.8
20260505000531 80 188 14.0 27.0 0.00 0.00 0.00 38 1004.7
20260505000025 81 191 14.0 27.0 0.00 0.00 0.00 37 1004.9
20260504235518 81 196 14.0 27.0 0.00 0.00 0.00 35 1004.8
20260504235000 81 217 13.0 21.0 0.00 0.00 0.00 36 1004.8
20260504234454 81 188 12.0 21.0 0.00 0.00 0.00 35 1004.8
20260504233959 81 196 12.0 19.0 0.00 0.00 0.00 35 1004.8
20260504233456 82 182 9.0 17.0 0.00 0.00 0.00 35 1004.8
20260504231707 81 194 10.0 17.0 0.00 0.00 0.00 40 1005.1
20260504231214 81 194 11.0 17.0 0.00 0.00 0.00 40 1005.1
20260504230702 81 195 12.0 17.0 0.00 0.00 0.00 42 1005.2
20260504230143 81 184 11.0 17.0 0.00 0.00 0.00 40 1005.3
20260504225632 81 164 10.0 16.0 0.00 0.00 0.00 41 1005.3
20260504225123 81 200 10.0 15.0 0.00 0.00 0.00 43 1005.4
20260504224614 82 200 10.0 15.0 0.00 0.00 0.00 40 1005.5
20260504224101 82 193 10.0 15.0 0.00 0.00 0.00 39 1005.5
20260504223554 82 178 9.0 16.0 0.00 0.00 0.00 43 1005.6
20260504223037 82 199 10.0 16.0 0.00 0.00 0.00 40 1005.6
20260504222521 82 188 10.0 16.0 0.00 0.00 0.00 42 1005.6
20260504222030 82 201 11.0 16.0 0.00 0.00 0.00 41 1005.8
20260504221523 82 177 10.0 15.0 0.00 0.00 0.00 40 1005.8
20260504220424 82 191 10.0 17.0 0.00 0.00 0.00 40 1005.8
20260504215915 82 185 9.0 17.0 0.00 0.00 0.00 38 1006.0
20260504214758 82 195 10.0 17.0 0.00 0.00 0.00 37 1006.0
20260504213653 82 193 11.0 15.0 0.00 0.00 0.00 37 1006.2
20260504213202 82 174 10.0 15.0 0.00 0.00 0.00 35 1006.2
20260504212649 83 191 9.0 15.0 0.00 0.00 0.00 35 1006.3
20260504212137 83 213 9.0 15.0 0.00 0.00 0.00 36 1006.3
20260504211028 82 188 8.0 14.0 0.00 0.00 0.00 35 1006.5
20260504210518 83 180 9.0 14.0 0.00 0.00 0.00 36 1006.6
20260504210028 83 196 8.0 14.0 0.00 0.00 0.00 34 1006.5
20260504205508 83 188 7.0 14.0 0.00 0.00 0.00 36 1006.6
20260504204956 83 191 8.0 14.0 0.00 0.00 0.00 37 1006.7
20260504204505 83 210 8.0 14.0 0.00 0.00 0.00 34 1006.8
20260504204003 83 191 6.0 12.0 0.00 0.00 0.00 36 1006.7
20260504203454 83 223 6.0 12.0 0.00 0.00 0.00 31 1006.8
20260504202942 83 197 6.0 12.0 0.00 0.00 0.00 31 1006.9
20260504201818 83 193 5.0 10.0 0.00 0.00 0.00 32 1006.9
20260504201301 82 207 6.0 11.0 0.00 0.00 0.00 32 1006.9
20260504200745 82 212 8.0 11.0 0.00 0.00 0.00 32 1006.9
20260504200239 82 183 7.0 11.0 0.00 0.00 0.00 33 1006.9
20260504195728 82 190 5.0 11.0 0.00 0.00 0.00 33 1007.0
20260504195222 82 216 5.0 10.0 0.00 0.00 0.00 32 1007.0
20260504194730 82 219 5.0 10.0 0.00 0.00 0.00 32 1007.0
20260504194214 82 244 4.0 9.0 0.00 0.00 0.00 29 1007.1
20260504193700 82 196 4.0 9.0 0.00 0.00 0.00 28 1007.1
20260504193155 82 181 4.0 8.0 0.00 0.00 0.00 30 1007.1
20260504192655 82 192 4.0 8.0 0.00 0.00 0.00 34 1007.2
20260504192152 82 209 4.0 8.0 0.00 0.00 0.00 32 1007.3
20260504191634 82 182 3.0 8.0 0.00 0.00 0.00 29 1007.3
20260504191144 81 203 3.0 8.0 0.00 0.00 0.00 34 1007.3
20260504190641 81 202 3.0 8.0 0.00 0.00 0.00 30 1007.4
20260504190131 81 198 4.0 8.0 0.00 0.00 0.00 34 1007.4
20260504185617 81 194 5.0 8.0 0.00 0.00 0.00 35 1007.4
20260504185113 81 182 3.0 8.0 0.00 0.00 0.00 33 1007.4
20260504184615 81 194 3.0 7.0 0.00 0.00 0.00 35 1007.5
20260504184108 81 186 3.0 7.0 0.00 0.00 0.00 33 1007.6
20260504182954 80 208 4.0 7.0 0.00 0.00 0.00 32 1007.6
20260504182505 79 214 3.0 7.0 0.00 0.00 0.00 37 1007.6
20260504182007 79 223 3.0 7.0 0.00 0.00 0.00 41 1007.7
20260504181516 78 194 2.0 7.0 0.00 0.00 0.00 43 1007.7
20260504180351 77 227 0.0 4.0 0.00 0.00 0.00 44 1007.8
20260504175838 76 214 1.0 6.0 0.00 0.00 0.00 44 1007.8
20260504175342 76 216 1.0 6.0 0.00 0.00 0.00 43 1007.8
20260504174846 75 198 2.0 6.0 0.00 0.00 0.00 49 1007.8
20260504174332 74 198 2.0 6.0 0.00 0.00 0.00 48 1007.9
20260504173832 73 204 0.0 6.0 0.00 0.00 0.00 49 1007.9
20260504173328 72 219 0.0 2.0 0.00 0.00 0.00 51 1008.0
20260504172809 71 219 0.0 3.0 0.00 0.00 0.00 53 1008.0
20260504172252 70 223 0.0 2.0 0.00 0.00 0.00 53 1008.0
20260504171737 68 223 0.0 0.0 0.00 0.00 0.00 58 1008.0
20260504171231 67 223 0.0 0.0 0.00 0.00 0.00 63 1008.0
20260504170737 66 224 0.0 0.0 0.00 0.00 0.00 63 1008.0
20260504170229 65 224 0.0 0.0 0.00 0.00 0.00 62 1008.1
20260504160439 58 214 1.0 4.0 0.00 0.00 0.00 76 1008.6
20260504150747 51 246 0.0 0.0 0.00 0.00 0.00 88 1008.9
20260504150245 50 246 0.0 0.0 0.00 0.00 0.00 88 1008.9
20260504130443 40 234 0.0 0.0 0.00 0.00 0.00 90 1008.3
20260504120128 41 234 0.0 0.0 0.00 0.00 0.00 89 1008.4
20260504110603 42 234 0.0 0.0 0.00 0.00 0.00 88 1008.5
20260504100312 44 234 0.0 0.0 0.00 0.00 0.00 87 1008.7